TimeCST,TemperatureF,Dew PointF,Humidity,Sea Level PressureIn,VisibilityMPH,Wind Direction,Wind SpeedMPH,Gust SpeedMPH,PrecipitationIn,Events,Conditions,WindDirDegrees,DateUTC
12:56 AM,63.9,54.9,72,29.98,10.0,SSE,11.5,-,N/A,,Partly Cloudy,160,2013-02-04 06:56:00
1:37 AM,64.4,55.4,73,29.99,10.0,SSE,11.5,-,N/A,,Mostly Cloudy,160,2013-02-04 07:37:00
1:56 AM,63.0,54.9,75,29.96,10.0,SSE,11.5,-,N/A,,Mostly Cloudy,160,2013-02-04 07:56:00
2:15 AM,62.6,55.4,77,29.98,10.0,SSE,11.5,-,N/A,,Scattered Clouds,160,2013-02-04 08:15:00
2:27 AM,62.6,55.4,77,29.96,10.0,SSE,10.4,-,N/A,,Mostly Cloudy,150,2013-02-04 08:27:00
2:36 AM,62.6,55.4,77,29.97,10.0,SSE,9.2,-,N/A,,Scattered Clouds,160,2013-02-04 08:36:00
2:56 AM,61.9,54.9,78,29.94,10.0,SSE,8.1,-,N/A,,Partly Cloudy,160,2013-02-04 08:56:00
4:56 AM,61.0,54.9,80,29.93,10.0,East,5.8,-,N/A,,Mostly Cloudy,100,2013-02-04 10:56:00
5:39 AM,60.8,55.4,82,29.95,10.0,Calm,Calm,-,N/A,,Scattered Clouds,0,2013-02-04 11:39:00
5:56 AM,59.9,54.0,81,29.93,10.0,Calm,Calm,-,N/A,,Clear,0,2013-02-04 11:56:00
6:56 AM,59.9,54.9,83,29.91,10.0,SE,5.8,-,N/A,,Clear,130,2013-02-04 12:56:00
7:56 AM,61.9,55.9,81,29.91,10.0,SE,8.1,-,N/A,,Clear,140,2013-02-04 13:56:00
8:56 AM,64.9,57.9,78,29.92,10.0,SSE,6.9,-,N/A,,Clear,160,2013-02-04 14:56:00
9:56 AM,70.0,57.9,65,29.93,10.0,South,10.4,-,N/A,,Clear,190,2013-02-04 15:56:00
10:56 AM,73.9,57.9,57,29.92,10.0,SSW,10.4,-,N/A,,Clear,210,2013-02-04 16:56:00
11:56 AM,75.9,57.9,54,29.91,10.0,SSW,5.8,-,N/A,,Clear,200,2013-02-04 17:56:00
12:56 PM,79.0,56.8,46,29.87,10.0,SSW,5.8,-,N/A,,Clear,200,2013-02-04 18:56:00
1:56 PM,79.9,54.9,42,29.83,10.0,Calm,Calm,-,N/A,,Clear,0,2013-02-04 19:56:00
2:56 PM,82.9,54.0,37,29.80,10.0,NNW,5.8,-,N/A,,Clear,340,2013-02-04 20:56:00
3:56 PM,84.9,52.0,32,29.78,10.0,Calm,Calm,-,N/A,,Clear,0,2013-02-04 21:56:00
4:56 PM,83.8,48.9,30,29.78,10.0,Variable,5.8,-,N/A,,Clear,0,2013-02-04 22:56:00
5:56 PM,81.9,47.8,30,29.79,10.0,NNE,6.9,-,N/A,,Clear,20,2013-02-04 23:56:00
6:56 PM,78.8,48.2,34,29.83,10.0,NE,6.9,-,N/A,,Clear,50,2013-02-05 00:56:00
7:56 PM,74.8,47.8,38,29.83,10.0,ENE,5.8,-,N/A,,Clear,60,2013-02-05 01:56:00
8:56 PM,72.9,47.8,41,29.85,10.0,NE,5.8,-,N/A,,Clear,50,2013-02-05 02:56:00
9:56 PM,70.9,47.8,44,29.86,10.0,ENE,5.8,-,N/A,,Clear,60,2013-02-05 03:56:00
10:56 PM,66.9,47.8,50,29.86,10.0,ENE,6.9,-,N/A,,Clear,60,2013-02-05 04:56:00
11:56 PM,68.9,47.8,47,29.87,10.0,ENE,6.9,-,N/A,,Clear,60,2013-02-05 05:56:00